Overview Statistics Trail Chart Weather Telemetry Raw packets
 

This is the latest recevied weather packets stored in our database for station/object W7TRD. If no packets are shown the sender has not sent any weather packets the latest 10 day(s).

<< 92 93 94 95 96 97 98 >>
Time Temp. Humidity Pressure Rain* Wind** Luminosity Snow
1787937309 18.89° C 70% 1019.5 hPa 0 mm - 228 W/m² -
1787937005 18.33° C 71% 1019.5 hPa 0 mm - 239 W/m² -
1787936704 18.89° C 71% 1019.4 hPa 0 mm - 180 W/m² -
1787936403 18.89° C 70% 1019.6 hPa 0 mm - 503 W/m² -
1787936098 18.33° C 75% 1019.6 hPa 0 mm - 576 W/m² -
1787935794 17.78° C 75% 1019.6 hPa 0 mm - 543 W/m² -
1787935490 17.78° C 76% 1019.6 hPa 0 mm - 504 W/m² -
1787935185 17.78° C 77% 1019.7 hPa 0 mm - 473 W/m² -
1787934881 17.22° C 80% 1019.7 hPa 0 mm - 401 W/m² -
1787934580 16.67° C 80% 1019.6 hPa 0 mm - 82 W/m² -
1787934275 17.22° C 79% 1019.7 hPa 0 mm - 83 W/m² -
1787933974 17.78° C 77% 1019.9 hPa 0 mm - 353 W/m² -
1787933673 18.33° C 76% 1019.6 hPa 0 mm - 432 W/m² -
1787933368 17.22° C 79% 1019.7 hPa 0 mm - 433 W/m² -
1787933068 17.22° C 80% 1019.8 hPa 0 mm - 423 W/m² -
1787932767 16.67° C 84% 1019.8 hPa 0 mm - 410 W/m² -
1787932467 16.11° C 83% 1019.7 hPa 0 mm - 383 W/m² -
1787932163 16.11° C 85% 1019.6 hPa 0 mm - 358 W/m² -
1787931860 15.56° C 86% 1019.7 hPa 0 mm - 328 W/m² -
1787931556 15.56° C 88% 1019.8 hPa 0 mm - 294 W/m² -
1787931251 15° C 88% 1020.1 hPa 0 mm - 265 W/m² -
1787930950 15° C 89% 1019.8 hPa 0 mm - 242 W/m² -
1787930649 15° C 89% 1019.8 hPa 0 mm - 74 W/m² -
1787930344 15° C 90% 1019.9 hPa 0 mm - 219 W/m² -
1787930039 15° C 90% 1019.8 hPa 0 mm - 133 W/m² -

* Rain latest hour (hover to see other rain measurements)
** Current wind speed in m/s (hover to see current wind gust speed)